When you browse on this site, cookies collect data to enhance your experience and personalize the content and advertising you see.
Visit our Privacy Policy to learn more. By continuing to use the site, you agree to this use of cookies and data.

Meteo pe oră la Egilsstaðir

Astăzi, 16 Iulie, Joi

Timp Temperatura Precipitaţii Vânt Presiune Umiditate
00:00 +5°C° 0 mm 2 m/s 668 mmHg 93%
01:00 +6°C° 0 mm 1 m/s 668 mmHg 96%
02:00 +6°C° 0 mm 1 m/s 668 mmHg 96%
03:00 +7°C° 0 mm 1 m/s 669 mmHg 96%
04:00 +7°C° 0 mm 1 m/s 669 mmHg 96%
05:00 +8°C° 0 mm 1 m/s 669 mmHg 94%
06:00 +8°C° 0 mm 2 m/s 669 mmHg 92%
07:00 +9°C° 0 mm 2 m/s 669 mmHg 90%
08:00 +10°C° 0 mm 2 m/s 669 mmHg 86%
09:00 +12°C° 0 mm 2 m/s 670 mmHg 82%
10:00 +12°C° 0 mm 2 m/s 670 mmHg 78%
11:00 +13°C° 0.1 mm 2 m/s 670 mmHg 71%
12:00 +15°C° 0.1 mm 2 m/s 670 mmHg 65%
13:00 +16°C° 0.1 mm 3 m/s 670 mmHg 59%
14:00 +16°C° 0.1 mm 3 m/s 670 mmHg 58%
15:00 +16°C° 0.1 mm 2 m/s 670 mmHg 57%
16:00 +16°C° 0.1 mm 2 m/s 670 mmHg 56%
17:00 +16°C° 0.1 mm 2 m/s 670 mmHg 59%
18:00 +16°C° 0.1 mm 2 m/s 670 mmHg 62%
19:00 +15°C° 0.1 mm 1 m/s 670 mmHg 65%
20:00 +13°C° 0 mm 1 m/s 669 mmHg 73%
21:00 +11°C° 0 mm 1 m/s 668 mmHg 80%
22:00 +9°C° 0 mm 1 m/s 668 mmHg 87%
23:00 +9°C° 0 mm 1 m/s 668 mmHg 88%

Mâine, 17 Iulie, Vineri

Timp Temperatura Precipitaţii Vânt Presiune Umiditate
00:00 +8°C° 0 mm 1 m/s 668 mmHg 89%
01:00 +8°C° 0 mm 1 m/s 668 mmHg 90%
02:00 +9°C° 0 mm 1 m/s 668 mmHg 90%
03:00 +9°C° 0 mm 1 m/s 668 mmHg 90%
04:00 +10°C° 0 mm 1 m/s 668 mmHg 89%
05:00 +11°C° 0 mm 1 m/s 668 mmHg 87%
06:00 +12°C° 0 mm 1 m/s 668 mmHg 84%
07:00 +12°C° 0 mm 1 m/s 668 mmHg 81%
08:00 +12°C° 0.1 mm 2 m/s 668 mmHg 81%
09:00 +13°C° 0.1 mm 2 m/s 668 mmHg 82%
10:00 +13°C° 0.1 mm 2 m/s 668 mmHg 82%
11:00 +12°C° 0.3 mm 2 m/s 668 mmHg 85%
12:00 +12°C° 0.3 mm 1 m/s 668 mmHg 88%
13:00 +11°C° 0.3 mm 1 m/s 668 mmHg 91%
14:00 +11°C° 0.3 mm 1 m/s 668 mmHg 91%
15:00 +11°C° 0.3 mm 1 m/s 668 mmHg 91%
16:00 +11°C° 0.3 mm 1 m/s 668 mmHg 90%
17:00 +10°C° 0.2 mm 0 m/s 668 mmHg 91%
18:00 +10°C° 0.2 mm 0 m/s 668 mmHg 92%
19:00 +9°C° 0.2 mm 0 m/s 668 mmHg 93%
20:00 +9°C° 0.1 mm 0 m/s 668 mmHg 94%
21:00 +9°C° 0.1 mm 0 m/s 668 mmHg 95%
22:00 +8°C° 0.1 mm 0 m/s 668 mmHg 96%
23:00 +8°C° 0.7 mm 0 m/s 667 mmHg 96%

Poimâine, 18 Iulie, Sâmbătă

Timp Temperatura Precipitaţii Vânt Presiune Umiditate
00:00 +8°C° 0.7 mm 0 m/s 667 mmHg 96%
01:00 +8°C° 0.7 mm 0 m/s 667 mmHg 97%
02:00 +9°C° 0.8 mm 1 m/s 667 mmHg 97%
03:00 +9°C° 0.8 mm 1 m/s 667 mmHg 97%
04:00 +9°C° 0.8 mm 1 m/s 667 mmHg 97%
05:00 +9°C° 0.4 mm 1 m/s 667 mmHg 97%
06:00 +9°C° 0.4 mm 1 m/s 667 mmHg 97%
07:00 +9°C° 0.4 mm 1 m/s 667 mmHg 97%
08:00 +10°C° 0.1 mm 1 m/s 667 mmHg 95%
09:00 +10°C° 0.1 mm 1 m/s 668 mmHg 93%
10:00 +11°C° 0.1 mm 1 m/s 668 mmHg 91%
11:00 +11°C° 0.1 mm 1 m/s 668 mmHg 86%
12:00 +12°C° 0.1 mm 1 m/s 669 mmHg 82%
13:00 +13°C° 0.1 mm 1 m/s 669 mmHg 77%
14:00 +13°C° 0.1 mm 1 m/s 669 mmHg 74%
15:00 +14°C° 0.1 mm 1 m/s 669 mmHg 71%
16:00 +14°C° 0.1 mm 1 m/s 669 mmHg 68%
17:00 +14°C° 0.1 mm 1 m/s 669 mmHg 70%
18:00 +14°C° 0.1 mm 1 m/s 669 mmHg 71%
19:00 +14°C° 0.1 mm 1 m/s 669 mmHg 72%
20:00 +13°C° 0.4 mm 1 m/s 668 mmHg 78%
21:00 +12°C° 0.4 mm 1 m/s 668 mmHg 85%
22:00 +11°C° 0.4 mm 1 m/s 668 mmHg 91%
23:00 +10°C° 0.2 mm 1 m/s 668 mmHg 93%

19 Iulie, Duminică

Timp Temperatura Precipitaţii Vânt Presiune Umiditate
00:00 +10°C° 0.2 mm 1 m/s 668 mmHg 94%
01:00 +9°C° 0.2 mm 1 m/s 668 mmHg 95%
02:00 +9°C° 0.1 mm 1 m/s 668 mmHg 96%
03:00 +9°C° 0.1 mm 1 m/s 668 mmHg 97%
04:00 +9°C° 0.1 mm 1 m/s 668 mmHg 97%
05:00 +10°C° 0 mm 1 m/s 668 mmHg 94%
06:00 +10°C° 0 mm 1 m/s 668 mmHg 91%
07:00 +11°C° 0 mm 1 m/s 668 mmHg 87%
08:00 +11°C° 0.1 mm 1 m/s 669 mmHg 85%
09:00 +12°C° 0.1 mm 1 m/s 669 mmHg 83%
10:00 +12°C° 0.1 mm 1 m/s 669 mmHg 81%
11:00 +12°C° 0.1 mm 1 m/s 669 mmHg 81%
12:00 +12°C° 0.1 mm 1 m/s 669 mmHg 81%
13:00 +13°C° 0.1 mm 1 m/s 669 mmHg 81%
14:00 +13°C° 0.3 mm 1 m/s 669 mmHg 80%
15:00 +13°C° 0.3 mm 1 m/s 669 mmHg 80%
16:00 +14°C° 0.3 mm 1 m/s 669 mmHg 79%
17:00 +14°C° 0.4 mm 1 m/s 669 mmHg 79%
18:00 +14°C° 0.4 mm 2 m/s 669 mmHg 80%
19:00 +14°C° 0.4 mm 2 m/s 668 mmHg 80%
20:00 +13°C° 0.5 mm 2 m/s 668 mmHg 84%
21:00 +12°C° 0.5 mm 2 m/s 668 mmHg 87%
22:00 +11°C° 0.5 mm 3 m/s 667 mmHg 90%
23:00 +11°C° 0.8 mm 3 m/s 667 mmHg 92%

20 Iulie, Luni

Timp Temperatura Precipitaţii Vânt Presiune Umiditate
00:00 +10°C° 0.8 mm 4 m/s 667 mmHg 94%
01:00 +10°C° 0.8 mm 4 m/s 667 mmHg 96%
02:00 +10°C° 0.4 mm 4 m/s 667 mmHg 96%
03:00 +10°C° 0.4 mm 4 m/s 667 mmHg 96%
04:00 +9°C° 0.4 mm 3 m/s 667 mmHg 96%
05:00 +9°C° 0.2 mm 3 m/s 668 mmHg 95%
06:00 +9°C° 0.2 mm 2 m/s 668 mmHg 94%
07:00 +10°C° 0.2 mm 1 m/s 668 mmHg 94%
08:00 +10°C° 0.2 mm 1 m/s 668 mmHg 93%
09:00 +10°C° 0.2 mm 1 m/s 668 mmHg 92%
10:00 +10°C° 0.2 mm 1 m/s 668 mmHg 91%
11:00 +10°C° 0.1 mm 1 m/s 668 mmHg 89%
12:00 +11°C° 0.1 mm 1 m/s 668 mmHg 86%
13:00 +11°C° 0.1 mm 1 m/s 669 mmHg 84%
14:00 +12°C° 0.2 mm 1 m/s 668 mmHg 83%
15:00 +12°C° 0.2 mm 1 m/s 668 mmHg 82%
16:00 +12°C° 0.2 mm 1 m/s 668 mmHg 81%
17:00 +12°C° 0.4 mm 2 m/s 668 mmHg 84%
18:00 +10°C° 0.4 mm 2 m/s 667 mmHg 87%
19:00 +10°C° 0.4 mm 2 m/s 667 mmHg 89%
20:00 +9°C° 2.8 mm 2 m/s 666 mmHg 92%
21:00 +9°C° 2.8 mm 2 m/s 666 mmHg 95%
22:00 +8°C° 2.8 mm 2 m/s 666 mmHg 98%
23:00 +8°C° 3.8 mm 2 m/s 666 mmHg 98%

21 Iulie, Marţi

Timp Temperatura Precipitaţii Vânt Presiune Umiditate
00:00 +8°C° 3.8 mm 2 m/s 665 mmHg 98%
01:00 +8°C° 3.8 mm 2 m/s 665 mmHg 98%
02:00 +7°C° 2.7 mm 2 m/s 665 mmHg 98%
03:00 +7°C° 2.7 mm 2 m/s 665 mmHg 98%
04:00 +6°C° 2.7 mm 2 m/s 665 mmHg 97%
05:00 +6°C° 1.1 mm 2 m/s 665 mmHg 97%
06:00 +6°C° 1.1 mm 2 m/s 665 mmHg 97%
07:00 +6°C° 1.1 mm 2 m/s 665 mmHg 97%
08:00 +6°C° 1.5 mm 2 m/s 665 mmHg 97%
09:00 +6°C° 1.5 mm 2 m/s 665 mmHg 97%
10:00 +6°C° 1.5 mm 2 m/s 665 mmHg 96%
11:00 +6°C° 1.4 mm 2 m/s 665 mmHg 96%
12:00 +6°C° 1.4 mm 2 m/s 665 mmHg 96%
13:00 +6°C° 1.4 mm 2 m/s 665 mmHg 95%
14:00 +4°C° 2.5 mm 3 m/s 664 mmHg 95%
15:00 +4°C° 2.5 mm 3 m/s 664 mmHg 95%
16:00 +4°C° 2.5 mm 3 m/s 664 mmHg 95%
17:00 +4°C° 2.1 mm 3 m/s 663 mmHg 96%
18:00 +4°C° 2.1 mm 4 m/s 663 mmHg 96%
19:00 +3°C° 2.1 mm 4 m/s 663 mmHg 96%
20:00 +3°C° 2.3 mm 3 m/s 662 mmHg 96%
21:00 +3°C° 2.3 mm 3 m/s 662 mmHg 97%
22:00 +3°C° 2.3 mm 3 m/s 662 mmHg 97%
23:00 +3°C° 2.8 mm 3 m/s 662 mmHg 97%
Arată mai mult